This is the latest recevied weather packets stored in our database for station/object OE2ATN. If no packets are shown the sender has not sent any weather packets the latest 10 day(s).
| Time | Temp. | Humidity | Pressure | Rain* | Wind** | Luminosity | Snow |
|---|---|---|---|---|---|---|---|
| 1777978496 | 22.22° C | 35% | 1014.8 hPa | 0 mm | - | - | - |
| 1777978195 | 21.67° C | 34% | 1014.9 hPa | 0 mm | - | - | - |
| 1777977895 | 21.67° C | 36% | 1014.9 hPa | 0 mm | - | - | - |
| 1777977595 | 21.67° C | 37% | 1015.1 hPa | 0 mm | - | - | - |
| 1777977295 | 21.67° C | 35% | 1015.2 hPa | 0 mm | - | - | - |
| 1777976995 | 21.67° C | 35% | 1015.2 hPa | 0 mm | - | - | - |
| 1777976695 | 21.67° C | 34% | 1015.3 hPa | 0 mm | - | - | - |
| 1777976397 | 21.67° C | 35% | 1015.3 hPa | 0 mm | - | - | - |
| 1777976095 | 21.11° C | 33% | 1015.4 hPa | 0 mm | - | - | - |
| 1777975794 | 21.11° C | 36% | 1015.6 hPa | 0 mm | - | - | - |
| 1777975494 | 21.11° C | 39% | 1015.4 hPa | 0 mm | - | - | - |
| 1777975197 | 21.11° C | 35% | 1015.6 hPa | 0 mm | - | - | - |
| 1777974895 | 21.11° C | 36% | 1015.7 hPa | 0 mm | - | - | - |
| 1777974594 | 21.11° C | 35% | 1015.7 hPa | 0 mm | - | - | - |
| 1777974294 | 21.11° C | 34% | 1015.7 hPa | 0 mm | - | - | - |
| 1777973994 | 20.56° C | 33% | 1015.8 hPa | 0 mm | - | - | - |
| 1777973693 | 21.11° C | 36% | 1015.8 hPa | 0 mm | - | - | - |
| 1777973394 | 21.11° C | 33% | 1015.8 hPa | 0 mm | - | - | - |
| 1777973094 | 20.56° C | 34% | 1015.9 hPa | 0 mm | - | - | - |
| 1777972794 | 20.56° C | 34% | 1015.9 hPa | 0 mm | - | - | - |
| 1777972494 | 21.11° C | 38% | 1016 hPa | 0 mm | - | - | - |
| 1777972193 | 20.56° C | 38% | 1016.1 hPa | 0 mm | - | - | - |
| 1777971893 | 20° C | 38% | 1016.2 hPa | 0 mm | - | - | - |
| 1777971593 | 19.44° C | 42% | 1016.2 hPa | 0 mm | - | - | - |
| 1777971293 | 19.44° C | 46% | 1016.2 hPa | 0 mm | - | - | - |
* Rain latest hour (hover to see other rain measurements)
** Current wind speed in m/s (hover to see current wind gust speed)